Theta_e
289 289 289 289 288 287 288 288 290 291 291 292 292 292 293 293 294 294 293 293 293 293 293 292 293 293 292 292 292 293 294 295 298 290 290 289 288 286 285 285 283 284 284
287 288 288 288 286 286 285 285 285 286 289 290 290 290 291 291 292 292 292 292 292 292 292 291 291 291 291 291 291 291 291 292 295 288 288 288 287 286 285 284 283 283 283
286 286 287 287 287 285 284 284 284 284 284 285 289 289 289 290 290 290 291 291 291 291 291 291 290 290 290 290 290 290 290 290 291 289 286 286 286 285 284 282 282 281 282
286 285 286 286 286 285 283 283 283 284 284 284 284 286 289 289 288 289 289 289 289 290 290 290 290 289 289 289 289 289 289 289 288 289 285 284 283 282 282 281 281 281 282
286 285 285 285 284 283 283 282 282 283 284 284 284 284 284 286 290 288 288 288 288 288 289 289 289 289 289 289 289 288 288 288 287 287 285 283 282 281 281 281 282 282 282
284 284 283 283 283 283 282 281 281 283 284 283 283 283 283 284 284 288 288 287 287 287 287 288 288 288 288 288 288 289 288 288 287 287 286 285 283 282 281 281 282 283 283
284 284 283 283 282 282 281 281 280 280 282 282 282 283 283 284 284 286 287 288 287 287 287 287 287 287 287 287 287 288 288 288 289 288 287 285 284 282 282 282 282 282 284
283 283 283 283 282 281 281 280 279 279 280 280 281 282 282 283 284 285 286 287 287 287 287 287 286 287 286 285 285 287 287 287 287 288 287 286 285 283 283 283 282 282 282
281 281 281 281 281 280 280 279 278 278 278 278 279 279 280 281 282 283 285 286 286 287 287 287 287 286 286 286 285 285 286 286 285 286 285 285 285 284 283 282 281 281 281
280 280 279 279 279 279 278 278 277 277 276 277 277 277 277 278 279 282 283 284 286 286 287 287 287 286 286 286 285 285 285 286 284 284 283 283 283 283 282 282 282 281 280
277 276 275 275 275 275 275 275 275 275 274 274 274 274 275 276 277 280 282 283 285 286 286 287 287 287 286 286 286 284 285 285 284 283 281 281 282 282 281 281 281 281 280
272 271 270 270 270 270 270 271 271 271 271 272 272 273 274 275 277 279 281 283 284 285 286 286 287 287 287 286 286 285 285 285 283 282 280 281 281 280 280 280 279 279 279
268 267 266 266 266 266 267 267 268 268 269 270 271 272 272 274 276 278 280 282 283 284 285 286 286 287 287 286 285 285 284 285 282 281 280 281 281 280 280 279 277 277 276
265 265 264 264 264 264 265 265 266 266 267 268 268 269 271 272 274 276 279 281 282 282 283 284 286 286 286 284 284 285 284 284 282 281 281 281 280 279 277 276 275 274 273
264 264 264 264 264 264 265 265 265 265 265 266 267 267 268 269 271 273 276 279 281 281 281 283 285 286 284 283 283 283 284 283 281 281 281 280 278 276 275 274 274 273 273
263 263 263 263 263 264 264 264 265 266 267 267 268 269 269 270 271 273 274 275 277 280 283 282 284 285 283 282 283 282 283 283 281 281 280 277 276 275 274 273 273 273 273
262 262 262 262 263 263 264 264 265 265 265 266 267 268 269 270 271 272 274 275 278 279 282 283 283 283 282 282 283 282 283 280 279 278 277 275 274 274 273 273 272 272 272
261 262 262 263 263 264 264 265 265 265 265 265 265 266 267 269 270 272 274 276 278 279 283 283 283 282 282 282 282 282 281 277 277 276 275 274 274 273 273 272 271 271 271
261 262 262 263 264 265 265 265 266 266 266 266 266 267 267 268 270 272 275 279 281 282 283 282 282 282 281 282 281 279 277 276 276 275 274 273 273 272 272 271 271 270 270
262 262 263 264 265 265 266 266 267 267 267 267 267 267 268 269 271 275 276 277 278 279 282 282 282 281 281 279 277 276 275 275 274 273 272 271 271 271 270 270 269 269 269
262 263 264 264 265 265 266 268 269 271 270 268 268 268 271 273 275 276 276 278 280 283 282 282 281 279 278 277 275 275 274 273 272 271 270 269 270 269 269 269 268 268 268
262 262 263 264 265 266 266 267 268 269 269 270 270 271 273 273 274 274 274 274 277 279 279 278 277 277 276 275 274 273 271 270 269 268 268 268 268 268 268 268 267 267 267
261 262 262 263 264 265 265 266 267 267 267 267 267 267 267 267 267 268 268 268 271 273 274 274 273 272 272 272 271 270 269 268 268 268 267 267 267 267 267 267 267 267 266
261 261 261 262 263 264 264 265 265 265 265 265 265 265 265 265 265 265 265 266 267 267 268 269 269 269 269 270 270 270 269 268 269 268 269 268 267 267 266 266 266 266 266
260 260 261 261 262 262 263 264 264 264 264 264 264 264 264 264 263 263 263 264 264 265 265 266 266 267 267 267 267 267 267 268 268 269 269 268 267 267 266 266 266 266 266
261 261 260 260 261 261 262 262 263 263 263 263 263 263 263 263 263 262 263 263 263 263 263 264 264 265 266 266 267 267 268 269 269 268 268 268 267 266 266 266 266 266 266
Wind_Speed
18 18 20 20 21 21 21 22 23 22 19 16 16 15 18 21 23 27 28 28 31 31 32 34 36 36 31 35 36 33 30 19 4 4 23 23 31 30 29 26 22 18 17
16 16 17 19 24 25 26 27 26 25 25 21 18 15 14 18 21 25 27 29 31 30 32 33 32 31 34 33 35 34 31 31 15 10 20 23 27 32 31 26 24 21 19
15 14 14 14 17 20 24 28 29 29 27 24 22 21 16 14 19 23 26 28 30 32 32 34 34 35 37 35 34 34 35 33 28 18 11 20 21 28 25 22 21 21 21
17 16 14 14 15 16 22 26 28 29 28 28 26 22 21 18 18 21 26 28 29 32 34 35 35 39 40 39 37 37 35 35 33 23 17 20 21 23 27 23 20 23 21
19 21 20 20 21 22 21 23 25 27 27 28 29 29 28 24 20 21 24 26 29 32 34 36 40 40 42 43 43 38 36 35 30 27 19 17 20 17 28 24 20 19 22
25 28 29 32 31 28 25 24 24 22 21 23 26 29 30 29 26 21 22 27 29 30 34 35 38 40 45 46 48 47 48 43 35 31 28 26 29 28 28 27 24 14 8
23 25 27 29 28 29 31 33 29 27 26 25 26 25 26 27 27 23 24 28 31 33 35 33 34 36 38 41 46 44 46 51 52 47 39 33 28 36 33 27 28 26 15
22 23 24 23 25 27 28 29 31 29 28 29 29 28 29 31 27 27 26 28 31 33 35 35 34 35 35 36 36 39 44 45 48 44 46 39 36 37 40 37 34 25 15
22 24 25 26 29 30 31 31 32 30 31 33 33 33 31 35 30 30 28 28 30 34 35 34 35 36 38 37 38 40 39 43 38 42 37 36 39 36 40 33 29 24 8
24 26 27 29 31 32 32 34 35 33 35 34 37 37 37 39 37 35 32 29 30 32 31 33 36 41 38 38 41 38 37 39 32 30 28 26 29 33 37 42 39 28 11
28 28 29 30 31 33 35 35 35 35 36 38 38 40 40 41 43 39 36 34 33 31 30 31 31 34 40 41 42 41 44 33 35 35 32 32 31 34 34 32 37 35 23
32 33 32 32 32 32 34 37 36 36 37 38 37 38 37 39 40 39 39 38 39 34 33 31 30 30 34 39 42 44 41 38 34 35 35 34 33 34 32 31 30 29 23
33 34 34 33 33 32 33 34 33 32 33 33 31 32 36 35 34 37 38 38 37 37 37 36 32 29 32 35 40 42 42 39 33 35 34 34 34 33 32 32 28 26 21
32 33 32 32 33 32 31 30 30 29 29 29 29 31 33 33 33 31 31 28 29 32 35 36 34 31 32 32 34 40 40 39 35 35 32 30 30 33 32 35 30 27 23
31 31 31 31 31 32 31 31 31 32 33 33 33 35 33 33 33 34 36 28 22 24 24 26 27 28 26 27 28 31 36 34 32 33 30 30 31 34 30 32 29 27 16
31 29 29 31 31 31 31 32 33 37 39 40 43 44 42 47 48 46 45 45 44 39 26 23 23 24 25 27 28 29 31 32 31 29 27 28 29 30 29 29 28 26 21
31 32 31 31 32 32 31 30 27 35 37 38 40 40 42 44 44 44 43 43 42 40 34 25 22 22 23 25 26 28 29 26 30 29 29 28 28 27 30 29 27 25 19
31 33 32 31 31 31 31 31 31 29 25 33 34 34 35 36 37 38 36 37 34 37 32 24 21 22 23 23 23 26 24 27 28 29 30 29 29 29 27 26 25 24 22
30 29 30 30 32 33 33 32 31 30 29 30 32 32 30 30 30 30 34 30 16 15 23 22 20 22 23 22 20 23 28 30 32 31 29 28 28 27 23 24 23 22 22
27 29 31 31 30 30 30 28 28 27 26 25 24 26 29 26 23 17 18 19 21 21 19 14 18 19 21 22 25 24 25 27 27 26 27 29 29 27 25 24 23 22 17
27 29 29 29 27 28 28 27 27 27 20 21 24 27 27 27 20 17 20 20 23 17 11 12 15 18 24 27 26 26 25 25 26 27 28 28 29 26 27 25 24 21 20
25 25 26 26 27 26 26 26 24 23 22 20 21 21 21 18 15 14 12 12 15 15 16 22 21 23 24 27 27 26 25 26 27 28 29 29 27 26 24 23 22 20 18
22 24 25 25 25 26 25 23 21 21 21 20 20 19 19 17 16 16 16 15 14 15 13 15 18 20 22 23 25 28 28 27 29 32 32 31 30 28 25 23 21 19 17
21 22 23 23 23 24 23 23 22 21 21 20 21 20 18 17 17 17 17 17 14 13 12 13 15 18 19 20 21 23 25 28 30 33 36 34 31 29 24 22 21 19 17
20 21 21 22 22 22 23 22 22 22 21 21 21 20 20 19 19 19 19 19 20 19 17 16 16 15 16 18 19 19 23 29 32 32 31 31 29 26 23 21 20 17 13
20 21 20 20 20 21 21 21 21 21 21 21 21 21 21 21 21 22 22 22 23 24 24 23 21 21 22 21 21 23 26 27 27 26 25 24 23 22 21 18 16 13 11
Wind_Direction
18 13 11 13 14 14 12 6 2 352 339 318 301 287 267 261 246 239 234 235 232 231 229 223 222 221 219 222 224 223 218 207 173 154 189 195 192 201 210 210 218 220 220
11 13 7 1 7 8 6 3 2 359 358 345 328 301 280 270 260 246 241 239 238 234 230 229 225 220 219 217 219 219 219 219 202 166 178 177 194 202 212 213 217 220 219
351 4 358 355 356 356 354 354 353 352 356 354 347 327 308 286 273 263 255 247 244 241 237 233 226 219 219 218 214 213 215 216 211 191 175 190 186 194 198 216 218 227 224
337 345 343 339 338 335 336 340 341 341 341 344 345 337 321 311 296 277 266 255 250 248 241 236 234 225 222 217 214 213 207 207 208 195 185 181 186 192 193 199 212 219 224
331 330 329 325 324 321 321 325 327 327 326 329 328 331 331 325 305 290 277 266 256 252 249 241 236 233 234 228 218 213 208 203 198 194 191 181 187 177 193 191 205 213 222
317 316 317 317 319 318 315 315 316 312 307 310 313 314 319 317 314 296 278 267 267 258 253 248 244 240 234 235 228 226 213 202 201 200 200 203 195 193 188 186 184 172 211
301 303 305 308 307 307 308 312 311 312 309 304 305 301 299 298 300 287 277 271 261 258 256 254 250 242 236 230 229 226 222 217 218 208 206 208 197 190 188 184 188 191 191
295 294 295 293 292 294 296 298 301 304 301 299 297 292 289 287 287 286 281 270 264 260 256 254 250 249 240 228 224 221 224 221 217 214 215 213 209 197 200 196 193 185 164
295 294 293 291 289 287 285 287 292 293 293 293 291 289 284 283 282 282 280 271 264 260 257 252 250 251 245 231 218 220 219 227 222 218 219 214 211 208 205 186 174 176 179
301 296 294 294 291 288 285 286 287 286 285 286 285 284 284 282 281 276 272 266 262 261 261 253 247 245 246 237 221 219 221 220 212 208 210 200 195 189 203 202 189 182 167
307 303 300 297 294 291 291 288 286 285 284 282 281 282 281 278 278 274 267 261 254 257 255 253 247 241 240 236 227 219 222 217 205 200 195 195 185 184 185 189 194 191 177
311 307 305 303 298 294 292 290 287 284 281 278 279 279 277 276 276 275 268 260 255 252 251 252 250 243 235 232 229 223 222 216 201 194 192 195 187 184 183 181 185 192 194
309 306 305 304 300 296 293 291 289 285 280 278 277 277 279 279 277 275 270 265 261 256 256 253 249 244 231 229 226 227 220 217 199 194 197 201 194 185 179 168 172 186 178
303 302 303 301 299 296 291 288 286 285 283 280 278 276 277 279 277 276 275 267 259 259 260 259 254 245 222 218 217 225 220 215 202 198 199 199 185 174 166 165 160 164 168
303 302 300 298 297 296 290 286 284 279 276 276 273 273 274 274 273 278 282 284 267 252 265 263 250 235 205 208 214 214 215 210 199 198 197 183 171 166 165 166 162 165 176
303 301 300 300 298 295 294 292 287 286 286 284 282 279 277 274 276 274 271 270 273 275 259 254 254 223 208 200 205 199 209 205 197 190 182 172 170 170 162 160 163 173 167
296 296 297 296 294 294 293 292 293 292 290 288 286 285 282 280 276 272 270 268 266 258 255 242 249 224 212 210 204 198 203 190 179 172 165 166 165 168 164 165 167 166 164
296 295 295 293 292 291 291 290 290 290 292 292 290 289 286 282 279 274 276 274 253 251 246 235 240 214 209 207 201 196 182 167 170 166 164 167 169 171 168 165 167 165 161
299 297 297 297 296 295 294 291 289 288 286 288 294 294 289 289 286 277 268 270 270 260 216 223 238 208 199 197 188 166 164 168 171 169 166 166 167 166 161 160 156 153 149
307 305 303 302 302 301 300 297 294 288 286 288 292 291 296 298 294 283 286 279 267 253 229 211 204 194 187 163 157 162 162 164 164 163 160 158 156 156 152 149 147 146 152
312 309 311 309 307 306 304 303 305 302 285 287 286 289 296 292 301 307 299 282 280 213 188 186 171 156 154 158 161 162 162 160 158 154 153 152 150 150 150 149 149 156 158
315 313 315 314 314 315 317 318 324 330 331 307 305 314 332 347 342 350 8 11 65 121 152 160 153 160 164 161 157 155 154 151 150 148 145 144 142 145 145 147 148 151 157
323 323 324 324 325 326 328 332 336 340 342 344 348 351 358 2 7 12 18 26 66 89 115 138 146 143 150 151 153 156 154 155 156 158 150 148 149 149 149 149 151 154 164
331 331 330 330 332 336 338 339 343 349 354 356 359 2 5 13 19 24 33 45 62 73 89 105 116 124 138 150 162 169 170 168 169 167 162 154 153 156 154 156 163 166 170
342 341 338 337 338 340 343 347 351 356 3 7 8 11 14 20 28 32 41 55 66 75 82 95 108 121 134 142 150 159 159 163 162 162 161 159 158 160 162 165 169 173 177
348 347 347 345 346 348 351 354 359 3 9 15 19 20 24 29 34 39 45 56 66 76 86 92 101 110 116 121 132 141 147 149 149 152 154 154 155 161 166 170 175 182 192